• Join FlightAware (Why Join?)
  • Login
  • US Flag 
07:49PM EDT


 

Airport Tracker/Info


-or-


 

Live Flight TrackerFlight Track Log ✈ N498QS ✈ 17-Aug-2013 ✈ KBUR - KSAN

Flight Track Log - Related Links

Times and Time Zones

All times are in EDT time to prevent confusion due to time zone crossing. See the N498QS flight status page for this flight to view local times or setup timezone preferences in your user account.

Time Position Orientation Groundspeed Altitude Reporting Facility
EDT Latitude Longitude Course Direction KTS MPH feet Rate Location/Type
11:06AM 34.1500 -118.3833 148° Southeast 210 242 3,900  Level Southern California TRACON
11:07AM 34.1500 -118.4500 270° West 236 272 7,000 1,500 Climbing Southern California TRACON
11:08AM 34.2000 -118.4667 345° North 243 280 7,000 1,140 Level Southern California TRACON
11:09AM 34.2667 -118.4667 360° North 254 292 9,200 1,680 Climbing Southern California TRACON
11:10AM 34.3167 -118.4167 40° Northeast 295 339 10,300 900 Climbing Southern California TRACON
11:11AM 34.2667 -118.3333 126° Southeast 335 386 11,000 360 Climbing Southern California TRACON
11:12AM 33.8475 -118.0689 148° Southeast  Level FlightAware Approximate
11:12AM 34.2000 -118.3000 158° South 410 472 11,000  Level Southern California TRACON
11:13AM 34.1000 -118.2333 151° Southeast 339 390 11,000  Level Southern California TRACON
11:14AM 34.0167 -118.1833 154° Southeast 352 405 11,000  Level Southern California TRACON
11:15AM 33.9333 -118.1333 154° Southeast 340 391 11,000  Level Southern California TRACON
11:15AM 33.9156 -118.1303 172° South 358 412 11,000  Level Los Angeles Center
11:16AM 33.8333 -118.1000 163° South 340 391 11,000  Level Southern California TRACON
11:17AM 33.7500 -118.0833 171° South 343 395 11,000  Level Southern California TRACON
11:18AM 33.6500 -118.0667 172° South 339 390 11,000  Level Southern California TRACON
11:19AM 33.5500 -118.0500 172° South 340 391 11,000  Level Southern California TRACON
11:20AM 33.4981 -118.0353 167° South 345 397 11,000  Level Los Angeles Center
11:21AM 33.4044 -118.0103 167° South 347 399 11,000  Level Los Angeles Center
11:22AM 33.3453 -117.9197 128° Southeast 354 407 11,000  Level Los Angeles Center
11:23AM 33.3025 -117.8142 116° Southeast 355 409 11,000  Level Los Angeles Center
11:24AM 33.2489 -117.6889 117° Southeast 355 409 11,000  Level Los Angeles Center
11:25AM 33.2000 -117.5667 116° Southeast 349 402 11,000  Level Southern California TRACON
11:26AM 33.1500 -117.4667 121° Southeast 353 406 11,000 -60 Level Southern California TRACON
11:27AM 33.0717 -117.3964 143° Southeast 353 406 10,900 -360 Descending Los Angeles Center
11:28AM 32.9911 -117.3511 155° Southeast 331 381 10,300 -1,080 Descending Los Angeles Center
11:29AM 32.9228 -117.3094 153° Southeast 292 336 8,700 -1,560 Descending Los Angeles Center
11:30AM 32.8667 -117.2333 131° Southeast 274 315 7,000 -1,020 Descending Southern California TRACON
11:31AM 32.8167 -117.1500 126° Southeast 259 298 6,600 -660 Descending Southern California TRACON
11:32AM 32.7833 -117.1000 128° Southeast 215 247 5,700 -1,200 Descending Southern California TRACON
11:33AM 32.7500 -117.0500 128° Southeast 197 227 4,200 -1,740 Descending Southern California TRACON
11:34AM 32.7000 -117.0667 196° South 222 255 2,300 -1,440 Descending Southern California TRACON
11:35AM 32.7167 -117.1167 292° West 160 184 1,200 -960 Descending Southern California TRACON
11:36AM 32.7272 -117.1658 284° West 156 180 300 -540 Descending Los Angeles Center
11:37AM 32.7389 -117.2125 287° West 154 177 100 -240 Descending Los Angeles Center